Lapse_Rate
4.7 4.8 4.6 4.6 4.7 4.8 4.6 4.6 4.8 4.5 4.3 4.4 4.5 4.6 4.8 5.0 5.2 5.2 5.1 5.2 5.1 5.6 6.0 6.1 5.9 5.7 5.0 4.7 6.1 6.2 6.6 6.8 7.1 6.9 7.2 6.9 6.4 6.5 6.7 7.1 7.5 7.2 7.6 7.8 7.8 7.7 7.3
4.8 4.8 4.8 4.8 4.5 4.8 4.9 4.7 4.6 5.0 5.1 4.9 4.6 4.6 4.9 5.3 5.5 5.4 5.4 5.7 5.8 6.2 6.2 6.1 6.0 5.7 5.2 5.3 6.2 6.3 6.2 6.8 6.6 6.2 6.4 6.2 6.5 6.7 7.0 7.1 7.4 7.7 7.5 7.5 7.8 7.7 7.4
4.8 4.6 4.7 4.6 5.0 4.7 4.9 5.0 4.8 4.8 5.1 5.3 4.9 5.0 5.3 5.3 5.5 5.4 5.9 6.2 6.4 6.4 6.1 6.2 6.1 5.9 6.0 6.2 5.4 5.8 6.1 6.6 6.6 6.4 6.0 5.9 6.3 6.5 6.8 7.0 7.2 7.3 7.4 7.5 7.6 7.8 7.5
4.7 4.6 4.7 4.9 4.9 5.2 5.1 5.1 5.0 4.9 4.7 5.0 5.4 5.3 5.5 5.4 5.5 5.8 6.4 6.6 6.3 6.2 6.2 6.1 6.0 6.1 6.7 6.0 5.6 5.8 6.1 6.2 6.2 6.8 6.5 6.4 6.0 6.0 6.2 6.8 7.1 7.2 7.3 7.5 8.0 7.9 7.8
5.1 4.9 4.8 5.1 5.2 5.0 5.5 5.5 5.3 5.2 5.2 5.3 5.1 5.5 5.7 5.5 5.6 6.5 6.6 6.6 6.2 6.2 6.3 6.1 6.1 6.2 6.5 6.2 6.0 6.1 5.8 6.0 5.7 6.6 6.6 6.3 6.3 6.6 6.3 6.7 7.1 7.4 7.6 7.9 8.4 8.3 8.2
4.9 5.2 5.1 5.2 5.2 5.3 5.6 5.6 5.6 5.6 5.7 5.6 5.5 5.7 5.7 5.9 6.4 6.7 6.7 6.5 6.0 6.2 6.4 6.0 6.1 6.3 6.2 5.5 5.9 5.6 5.3 5.1 5.5 5.9 6.2 6.3 6.3 6.2 6.2 7.0 7.3 8.0 8.1 8.4 9.0 9.2 7.7
5.2 5.2 5.2 5.5 5.5 5.6 5.5 5.4 5.6 5.7 5.8 5.9 5.6 5.6 5.8 6.3 6.5 6.8 6.8 6.6 5.3 4.9 6.3 5.7 5.5 6.3 5.9 5.9 6.0 5.4 5.3 4.6 4.7 4.8 5.7 6.2 6.0 6.3 6.5 7.1 7.6 8.3 9.2 9.4 9.0 9.5 7.8
5.3 5.4 5.5 5.7 5.7 5.6 5.5 5.6 5.7 5.7 5.9 6.0 6.0 6.0 6.1 6.3 6.5 6.7 6.5 6.1 5.8 5.8 6.9 6.3 6.4 6.0 6.0 5.8 6.1 5.8 5.1 4.5 4.6 4.7 5.6 5.8 5.9 6.6 7.1 7.4 7.8 7.9 8.2 8.2 8.9 8.3 7.6
5.6 5.7 5.8 5.7 5.6 5.6 5.6 5.8 5.8 5.9 6.0 6.1 6.1 6.3 6.3 6.3 6.4 6.5 6.3 5.7 5.7 5.8 6.3 6.0 5.9 5.7 5.8 6.1 6.4 6.0 5.2 4.7 5.0 4.6 4.7 5.9 6.7 6.7 6.9 7.5 7.7 7.8 7.9 8.1 8.4 8.8 7.4
5.9 5.9 5.8 5.9 5.8 5.8 5.8 5.7 5.9 5.9 6.1 6.0 6.1 6.2 6.4 6.4 6.4 6.1 5.8 5.7 5.6 5.8 5.9 6.0 5.5 5.4 5.6 5.8 6.0 6.5 5.6 5.1 5.1 4.9 4.8 5.2 6.6 6.8 6.8 7.3 7.7 7.8 8.0 8.0 8.2 8.2 8.0
6.0 6.0 6.0 5.9 5.9 6.0 6.1 6.1 6.0 6.1 6.0 6.0 6.1 6.2 6.3 6.3 6.2 6.0 5.9 5.7 5.6 5.9 7.3 6.1 5.6 5.6 5.9 5.7 5.4 6.2 6.4 5.8 5.4 5.2 5.5 5.9 6.3 6.6 6.5 7.0 7.4 7.5 7.7 8.1 7.9 7.9 7.9
5.8 6.0 5.8 5.9 5.8 5.7 5.7 5.9 6.0 6.2 6.2 6.2 6.2 6.2 6.1 6.1 6.3 6.0 5.7 5.6 5.6 5.9 7.7 6.6 5.9 5.7 5.8 6.0 6.0 6.1 6.4 6.2 6.0 5.7 5.7 6.0 6.2 6.1 6.2 6.8 7.3 7.5 7.4 7.7 7.7 8.0 8.0
6.1 5.7 5.7 5.6 5.7 5.7 5.5 5.8 6.0 6.2 6.1 6.3 6.2 6.2 6.2 5.9 6.1 5.9 5.5 5.5 5.8 6.9 6.9 6.8 6.3 6.0 6.3 6.4 6.4 6.0 6.0 6.7 6.4 5.7 5.8 6.4 6.1 6.4 6.3 6.4 7.0 7.4 7.5 8.2 8.4 8.4 7.9
6.0 5.7 5.6 5.6 5.4 5.3 5.5 5.5 5.8 6.1 6.1 6.0 6.1 6.2 6.0 6.0 6.0 5.8 5.0 5.0 6.2 7.1 6.9 6.5 6.4 6.5 6.8 6.7 6.6 6.5 6.1 6.1 6.1 6.2 6.7 6.9 6.9 6.5 6.5 6.3 6.9 7.3 7.5 7.8 8.0 8.5 9.4
5.8 5.8 5.4 5.0 4.9 4.9 5.5 5.8 5.9 6.1 6.1 6.1 6.1 6.1 6.0 6.0 6.0 5.7 5.0 5.5 7.0 7.0 6.7 6.6 6.7 7.0 7.1 6.7 6.6 7.1 6.9 6.6 6.4 6.2 6.6 7.5 7.5 8.0 7.1 6.9 6.7 7.5 7.0 7.5 8.2 8.2 8.6
5.6 5.6 5.5 5.3 5.0 5.1 5.4 6.0 6.3 6.3 6.4 6.4 6.0 6.0 6.2 5.8 5.9 5.2 4.8 5.3 6.5 6.4 6.1 6.2 6.8 6.8 7.1 6.6 7.0 7.3 7.1 6.3 6.3 6.4 7.0 7.3 7.5 8.4 7.6 7.1 6.9 7.0 8.1 7.9 7.9 8.1 8.2
5.6 5.7 5.7 5.7 5.5 5.9 6.1 6.0 6.6 6.6 6.4 6.2 6.1 5.8 5.3 6.1 5.6 5.3 4.9 5.5 6.3 6.4 6.3 6.2 6.7 6.7 6.8 6.5 6.3 6.7 6.7 6.2 6.0 6.4 6.7 7.4 7.7 8.1 7.7 6.9 7.4 7.2 7.3 7.6 8.5 8.4 8.8
6.0 5.9 6.4 6.5 6.2 5.9 5.5 5.7 6.2 6.1 6.0 5.7 5.8 5.4 5.7 6.0 5.6 5.4 5.0 5.8 6.2 6.4 6.3 6.3 6.2 6.4 6.5 6.4 6.3 6.3 6.7 6.5 6.1 6.0 6.6 7.0 7.2 8.0 7.7 7.8 7.7 8.0 7.5 7.6 8.2 8.2 8.5
6.0 6.3 6.5 6.4 6.3 5.6 5.7 5.6 5.8 5.9 5.9 6.0 5.9 5.7 5.7 6.2 5.7 5.5 5.5 5.6 5.8 6.3 6.5 6.5 6.4 6.5 6.7 6.6 6.5 6.6 6.5 6.2 6.1 6.0 6.2 6.4 7.0 7.8 8.7 8.3 8.0 8.1 8.0 8.1 8.2 8.1 7.5
6.0 6.5 6.3 6.0 5.9 5.8 5.9 5.9 5.8 5.9 6.1 6.2 6.2 6.2 5.9 6.1 6.2 6.2 6.1 5.9 6.1 6.1 6.7 6.8 6.7 6.7 6.6 6.7 6.6 6.5 6.6 6.4 6.3 6.4 6.1 6.1 7.0 7.9 8.7 8.4 8.7 8.7 8.7 8.3 8.5 8.4 8.1
5.9 5.9 5.9 6.0 6.0 6.3 6.3 6.1 6.1 6.2 6.6 6.5 6.3 6.4 6.5 6.3 6.2 6.0 6.2 6.5 6.4 6.4 6.6 6.8 6.8 6.8 6.9 6.8 6.9 6.7 6.7 6.7 6.9 7.0 6.4 6.2 6.8 7.4 8.4 7.8 7.9 8.6 8.4 7.8 8.2 8.5 8.5
5.8 5.8 5.6 5.7 5.8 6.0 6.3 6.5 6.5 6.6 6.8 6.7 6.5 6.4 6.4 6.6 6.7 6.6 6.5 6.3 6.5 6.9 6.8 6.9 6.9 7.2 7.0 6.9 7.1 7.2 7.2 6.8 6.4 6.9 6.4 6.0 6.3 6.3 6.9 7.4 7.5 8.0 8.2 8.1 8.2 8.2 8.0
5.9 5.8 5.6 5.6 5.8 6.1 6.4 6.8 7.0 7.2 7.4 7.5 7.2 6.8 6.7 6.8 6.7 6.9 6.7 6.8 6.8 7.0 6.8 6.9 7.3 7.3 7.6 7.8 7.1 6.8 6.3 5.7 5.8 6.4 6.6 6.0 6.5 6.3 6.5 7.1 7.4 7.5 7.5 7.9 8.0 8.1 8.2
5.7 5.7 5.8 5.8 6.0 6.2 6.4 6.8 7.1 7.4 7.6 7.9 7.6 7.4 7.1 6.8 6.8 7.0 7.2 7.0 7.0 7.0 7.1 7.3 7.4 7.3 7.5 7.5 7.4 7.0 6.6 6.5 6.4 6.5 6.5 6.4 6.4 6.5 6.7 6.8 6.7 8.0 7.8 8.0 8.1 8.3 8.5
5.8 5.9 5.9 6.0 6.0 6.3 6.6 6.8 7.1 7.4 7.8 7.8 7.8 7.6 7.1 6.6 6.9 7.1 6.9 7.1 7.1 6.8 6.6 6.8 7.3 7.5 7.3 7.4 7.2 7.2 7.4 7.2 6.8 7.0 6.9 6.7 6.7 7.2 7.5 7.6 8.1 8.4 8.1 8.1 8.3 8.7 8.2
6.3 6.4 6.4 6.5 6.4 6.3 6.6 6.8 7.2 7.4 7.7 7.7 7.7 7.4 7.1 6.8 6.6 6.9 7.1 7.0 6.9 6.8 7.0 7.0 7.3 7.2 7.4 7.1 6.8 7.1 7.9 7.8 7.9 7.7 7.3 7.1 6.9 7.1 7.4 7.8 8.2 8.6 8.5 7.8 7.9 8.6 8.0
6.7 6.6 6.6 6.6 6.7 6.6 6.6 6.9 7.2 7.5 7.7 7.6 7.5 7.3 6.9 6.4 7.0 6.6 6.7 6.8 6.8 6.9 7.0 7.1 7.2 7.1 7.0 7.1 6.8 7.1 7.7 7.8 7.8 7.6 7.3 7.3 7.0 7.0 7.5 7.9 8.0 8.2 7.8 7.3 7.9 8.2 6.6
7.1 7.0 6.9 6.8 6.8 6.7 6.5 6.8 7.1 7.4 7.4 7.3 7.4 7.1 6.7 6.5 7.1 6.4 6.5 6.4 6.7 6.7 7.1 7.0 6.8 7.0 6.7 6.3 6.8 7.4 7.5 7.8 8.0 7.5 7.5 7.5 7.0 7.0 7.3 7.6 7.5 8.0 7.6 7.5 7.0 6.6 6.3
6.9 7.0 6.9 6.6 6.7 6.6 6.6 6.7 7.0 7.1 7.1 7.1 7.2 7.0 7.0 6.3 6.8 6.3 6.5 6.5 6.5 6.4 6.5 6.5 6.7 7.1 6.6 6.8 7.3 7.2 7.4 7.4 7.8 7.9 7.3 7.4 7.4 7.7 7.7 7.7 7.7 7.9 7.4 6.7 7.1 7.0 7.2
Wind_Speed
7 8 9 11 12 13 14 15 11 11 15 17 18 17 18 19 20 21 22 23 23 24 24 23 20 18 12 8 18 11 6 4 3 10 14 17 19 19 22 20 19 22 21 19 16 13 11
9 9 10 9 11 14 14 12 13 12 14 17 19 17 19 21 21 22 23 23 24 25 25 23 19 14 11 17 11 6 5 3 6 8 14 15 16 16 17 21 18 20 18 22 15 15 16
10 11 10 10 10 13 12 13 16 17 13 14 16 18 20 23 22 24 24 25 27 27 27 25 19 11 12 22 6 1 7 7 8 14 18 16 15 14 13 17 16 17 21 17 20 18 16
12 11 12 11 10 12 11 14 16 13 14 15 16 19 21 22 22 25 27 27 29 29 27 21 11 11 9 7 11 17 14 16 9 14 16 17 15 15 18 14 16 15 20 18 19 19 19
9 12 13 11 12 13 11 14 16 13 12 15 18 19 21 22 24 26 30 31 32 27 13 5 9 11 9 3 8 11 13 14 7 16 16 13 13 16 17 16 14 17 15 21 18 15 10
13 15 15 14 12 12 15 13 16 14 10 13 18 21 21 22 24 28 32 37 23 11 11 7 5 7 6 6 7 3 5 9 7 11 13 15 10 14 18 16 16 17 18 18 17 13 12
14 14 13 13 11 13 16 15 13 15 11 12 17 21 23 22 24 27 24 17 3 8 7 14 15 16 14 1 12 8 7 9 9 11 17 17 15 21 25 24 22 20 18 15 13 5 8
14 13 14 14 16 16 16 16 14 11 12 13 14 18 22 23 26 27 18 6 5 6 13 17 19 18 20 18 10 12 10 14 14 14 15 15 22 21 22 24 23 24 24 15 14 2 7
16 15 15 17 17 18 16 14 13 12 13 14 16 16 20 23 27 15 9 7 8 9 7 10 5 5 4 9 14 14 15 14 13 15 19 23 19 20 22 21 22 21 22 18 17 7 9
17 17 17 17 17 17 15 15 12 13 13 15 16 16 18 22 11 9 7 8 9 6 5 5 3 4 3 2 5 19 11 13 6 17 18 19 23 10 20 24 18 21 18 19 16 15 13
17 16 17 16 17 15 17 15 14 13 10 14 14 14 16 12 12 10 10 12 11 1 6 4 5 3 4 5 8 4 14 19 16 14 13 19 10 18 23 19 20 21 15 15 16 17 15
19 17 16 14 14 17 16 17 14 12 11 11 14 13 16 15 6 13 12 14 8 5 5 3 1 5 7 8 7 2 4 11 12 20 16 18 15 14 14 19 18 16 11 11 13 14 15
17 17 15 17 17 18 15 18 14 11 14 11 14 13 11 16 10 13 12 9 7 6 5 2 2 7 10 7 4 9 6 10 10 12 21 20 21 14 13 19 18 18 14 9 11 12 14
20 17 17 21 19 20 16 12 13 12 13 12 12 13 14 15 14 11 9 8 10 3 4 3 5 11 5 5 3 6 7 8 15 16 12 18 15 22 12 15 18 20 18 9 14 11 14
21 21 20 20 21 17 16 16 12 15 12 11 11 10 11 10 13 10 8 10 5 6 3 6 11 10 3 3 6 4 8 1 5 18 14 12 21 10 14 12 15 17 21 21 18 10 7
18 20 21 21 17 18 16 17 15 13 11 9 8 7 12 13 13 9 6 14 12 6 4 5 7 1 5 5 6 7 2 7 2 10 17 13 10 15 14 14 19 22 12 18 11 12 12
21 20 20 21 20 18 14 14 14 10 10 8 5 4 3 13 10 6 10 15 12 9 6 8 8 7 7 6 5 7 2 5 10 9 10 14 11 9 11 18 19 15 18 13 15 14 9
23 21 21 20 20 19 17 18 18 11 12 10 5 4 4 9 7 5 11 17 15 10 13 14 9 12 11 9 9 5 5 4 7 12 8 15 6 11 18 20 20 18 21 20 10 9 12
24 24 21 21 22 19 18 21 18 12 14 7 5 7 6 8 8 12 13 16 17 15 16 13 13 14 13 11 6 7 10 4 6 7 9 13 8 9 15 11 9 14 19 20 20 14 12
25 23 23 24 22 21 18 20 15 13 16 10 3 4 8 8 9 12 15 14 17 16 19 15 12 12 10 12 11 9 8 3 5 3 5 11 11 14 12 11 13 15 7 10 10 10 13
25 24 23 23 23 23 21 21 19 18 18 7 5 6 6 8 14 17 15 7 19 17 15 15 13 16 15 15 14 15 15 12 7 5 4 5 6 11 9 5 5 6 14 11 12 12 10
25 24 23 25 26 25 24 23 23 23 22 7 3 5 10 11 13 18 19 17 16 14 15 16 16 16 16 17 14 9 8 6 10 5 5 7 3 9 8 6 6 7 9 11 13 12 12
27 26 25 25 24 24 23 23 24 24 21 5 8 9 4 8 16 13 12 18 20 17 12 16 13 13 13 12 10 11 11 8 12 12 10 8 7 4 4 7 8 8 14 14 13 14 13
29 29 28 27 26 26 25 24 23 23 25 6 4 8 6 10 11 13 19 16 14 15 17 12 14 13 7 5 7 11 13 14 15 17 14 12 10 10 5 5 4 6 5 3 12 13 11
30 31 31 30 28 28 26 25 26 24 26 10 9 6 6 9 14 17 15 14 12 10 16 12 11 8 4 4 4 8 10 12 14 20 18 15 11 5 5 7 10 5 3 9 7 7 3
33 33 33 31 29 28 27 27 26 25 26 11 8 10 5 6 13 17 18 16 12 12 12 9 4 4 4 2 3 7 8 11 10 8 19 16 12 9 5 11 11 5 3 2 3 7 11
36 35 35 33 32 29 28 28 26 25 27 11 6 16 6 6 16 14 7 9 10 11 9 1 3 4 8 4 5 6 8 4 5 9 15 14 12 14 11 8 6 8 9 0 11 5 9
35 36 37 37 34 32 29 28 27 26 27 16 11 14 11 6 16 16 17 14 11 4 4 2 2 4 4 6 5 6 4 4 6 3 15 13 10 9 13 10 13 8 3 7 8 4 8
27 24 24 30 35 33 30 28 27 26 27 26 11 12 11 7 8 7 19 21 19 14 7 5 7 2 8 7 6 2 4 2 7 5 12 9 10 8 11 9 3 3 7 8 7 7 8
Wind_Direction
320 325 321 323 326 325 320 319 324 331 335 330 329 322 320 317 319 314 312 309 304 304 302 305 311 324 315 257 253 288 334 212 223 216 229 230 221 226 227 235 234 233 243 263 253 244 235
314 315 316 322 328 327 341 342 332 331 328 324 326 328 324 320 318 313 309 305 303 300 298 300 304 306 270 265 272 258 268 328 319 239 253 241 233 229 244 247 250 243 242 260 245 240 233
297 299 305 318 319 313 323 331 323 318 320 325 327 328 325 321 318 310 305 303 300 299 294 295 291 258 253 246 278 259 250 266 283 289 277 256 254 263 256 257 263 263 262 257 249 241 239
290 296 302 298 305 309 317 324 318 324 331 333 334 329 325 320 316 308 306 303 300 295 295 288 258 219 256 287 280 249 258 248 255 259 258 272 276 262 255 274 265 255 243 254 249 224 233
292 301 296 300 293 302 313 313 312 315 326 329 328 328 325 320 317 313 309 307 298 291 276 238 185 218 274 87 245 250 235 251 267 248 243 256 250 248 236 235 246 237 246 232 249 222 234
295 289 291 287 287 299 303 298 304 317 324 330 330 327 321 323 322 318 314 299 285 274 226 227 260 219 250 298 333 313 236 224 231 249 220 228 236 235 233 231 231 239 220 243 259 203 206
290 291 285 292 299 290 294 291 297 325 316 329 328 324 322 328 322 320 315 307 249 210 253 278 290 267 293 249 331 232 173 195 200 240 223 203 220 225 226 224 246 256 263 276 245 223 210
291 298 302 295 288 282 288 297 295 319 326 324 327 324 324 327 318 316 301 351 23 333 297 279 260 263 266 272 279 277 172 215 225 238 219 251 228 232 239 240 235 242 253 255 266 131 237
288 288 289 292 298 287 278 284 297 300 312 321 324 323 325 325 317 301 312 327 309 341 271 302 260 280 311 232 231 249 194 221 188 205 253 232 234 225 249 235 238 229 241 247 260 224 229
276 278 281 279 285 297 287 280 287 290 306 314 315 321 327 327 297 309 278 329 336 334 282 130 145 107 144 248 225 241 244 226 224 220 213 264 240 228 226 239 226 242 232 245 256 258 256
280 280 278 280 283 290 290 275 280 284 291 307 314 318 322 315 309 295 320 319 309 321 290 80 108 85 121 242 327 183 224 234 247 224 243 238 241 233 243 235 226 244 258 246 234 252 259
285 280 274 279 277 288 296 286 279 271 281 306 307 314 320 284 255 273 309 313 272 238 234 145 128 339 292 239 225 190 218 234 254 260 249 260 269 233 251 248 244 252 216 246 236 244 241
292 292 276 276 277 274 281 285 277 265 283 289 296 303 295 293 271 320 301 273 248 244 116 87 349 320 302 282 219 202 195 188 193 219 239 244 249 230 211 237 233 227 200 211 219 223 234
285 281 281 279 277 269 274 285 285 273 272 282 291 302 279 259 257 281 276 237 249 1 250 348 298 306 289 346 153 220 184 238 223 231 248 232 222 234 189 212 234 209 206 214 215 231 223
289 281 281 280 284 272 264 269 266 278 271 272 296 274 253 244 234 240 254 226 247 267 353 292 297 269 218 347 291 272 218 260 240 224 215 259 237 209 201 203 245 218 224 233 265 250 277
277 279 285 283 271 266 256 263 277 279 267 255 284 307 268 246 212 214 219 235 245 243 279 258 268 246 276 358 319 314 136 18 359 248 236 253 272 242 207 205 218 251 228 221 229 245 238
282 280 279 282 271 267 268 260 261 262 250 244 267 264 205 187 183 207 220 222 243 245 219 248 254 259 269 309 321 313 0 116 18 352 274 250 259 231 219 206 213 213 241 249 230 222 236
274 275 276 274 272 272 247 243 256 243 228 240 241 235 133 169 192 200 227 228 263 265 235 249 264 264 267 287 296 290 267 314 38 336 298 224 286 227 238 215 228 219 216 230 233 212 235
271 273 272 272 271 268 249 252 256 246 213 251 234 239 225 193 215 220 224 242 251 243 241 232 232 245 265 273 271 246 258 65 11 324 348 353 234 244 213 187 218 232 222 231 228 238 217
272 275 270 269 260 261 251 247 239 239 227 225 257 233 221 201 243 254 228 231 226 224 255 236 248 251 246 246 250 263 263 301 332 2 346 321 249 253 236 243 199 212 204 224 236 212 231
273 271 271 264 260 257 256 247 240 221 226 207 213 244 219 212 228 226 243 245 222 226 226 239 232 244 243 249 248 251 266 263 269 144 177 303 280 302 247 323 311 250 191 203 225 232 255
269 268 265 261 258 255 249 243 234 220 214 217 213 231 241 254 246 227 222 234 257 233 218 219 237 237 237 244 249 268 263 281 285 298 307 188 294 306 279 239 255 251 241 239 229 243 242
268 264 260 257 253 252 250 245 230 216 213 210 227 251 296 252 245 237 226 230 234 248 245 244 237 255 241 253 307 296 302 249 270 281 286 279 237 212 265 267 294 262 241 236 237 239 239
266 264 261 254 249 244 243 241 232 222 206 203 228 218 234 247 247 241 244 225 229 244 242 254 261 232 260 352 304 271 265 262 253 248 249 255 250 242 219 199 224 238 54 239 239 247 250
264 260 258 254 247 242 237 233 230 227 215 209 228 230 225 244 248 248 246 256 252 248 236 262 263 281 353 25 308 263 237 240 243 236 226 226 257 268 249 250 272 233 281 235 224 243 139
259 255 252 247 243 235 233 229 229 226 219 216 218 240 215 248 243 275 252 251 240 245 259 235 226 104 193 153 210 247 227 220 199 198 207 202 228 244 205 247 254 277 122 327 253 235 108
259 251 245 241 235 231 225 227 226 222 216 203 222 220 222 243 255 264 279 276 247 245 258 198 152 196 185 191 238 243 238 226 214 187 183 191 201 222 233 246 261 263 155 31 223 105 72
262 257 246 229 229 224 222 221 219 213 211 208 222 221 208 232 255 261 261 257 261 241 228 66 138 179 177 214 238 230 237 239 244 225 187 183 190 207 228 235 241 257 158 245 49 34 27
270 259 251 225 214 218 212 212 212 212 208 208 230 215 204 225 263 278 268 259 268 272 268 226 258 273 198 218 234 181 261 190 261 235 205 200 206 200 194 218 159 110 83 66 26 6 13